Weather History for KIKK - December, 2012

Change the Weather History Date:

Friday, December 7, 2012

  Actual Average Record
Temperature  
Mean Temperature 44 °F -  
Max Temperature 46 °F 37 °F 59 °F (1980)
Min Temperature 41 °F 22 °F -3 °F (1977)
Degree Days  
Heating Degree Days 22    
Moisture  
Dew Point 43 °F    
Average Humidity 95    
Maximum Humidity 99    
Minimum Humidity 90    
Precipitation  
Precipitation 0.08 in - - ()
Sea Level Pressure  
Sea Level Pressure 29.91 in    
Wind  
Wind Speed 4 mph (NE)    
Max Wind Speed 10 mph    
Max Gust Speed -    
Visibility 5 miles    
Events Rain    
Averages and records for this station are not official NWS values.
T = Trace of Precipitation, MM = Missing Value Source: NWS Daily Summary

Daily Weather History Graph

Daily Weather History Graph

Search for Another Location

Airport or City:

Trip Planner

Search our weather history database for the weather conditions in past years. The results will help you decide how hot, cold, wet, or windy it might be!

Date:

Astronomy

Dec. 07, 2012 Rise Set
Actual Time 7:03 AM CST 4:22 PM CST
Civil Twilight 6:32 AM CST 4:53 PM CST
Nautical Twilight 5:58 AM CST 5:28 PM CST
Astronomical Twilight 5:24 AM CST 6:01 PM CST
Moon 12:19 AM CST (12/7) 12:22 PM CST (12/7)
Length of Visible Light 10h 21m
Length of Day
9h 19m
Last Quarter, 38% of the Moon is Illuminated
Dec 7
Last Quarter
Dec 13
New
Dec 19
First Quarter
Dec 28
Full
Jan 4
Last Quarter

Hourly Weather History & Observations

Time (CST) Temp. Windchill Dew Point Humidity Pressure Visibility Wind Dir Wind Speed Gust Speed Precip Events Conditions
12:15 AM 43.5 °F - 41.2 °F 91% 29.95 in 10.0 mi Calm Calm - N/A   Overcast
12:35 AM 43.3 °F 41.7 °F 41.0 °F 91% 29.94 in 10.0 mi South 3.5 mph - N/A   Overcast
12:55 AM 43.3 °F 40.7 °F 41.0 °F 91% 29.95 in 10.0 mi SSW 4.6 mph - N/A   Overcast
1:15 AM 43.7 °F 42.1 °F 41.0 °F 90% 29.94 in 10.0 mi SSW 3.5 mph - N/A   Overcast
1:35 AM 43.7 °F 42.1 °F 41.2 °F 91% 29.94 in 10.0 mi SSW 3.5 mph - N/A   Overcast
1:55 AM 43.7 °F 42.1 °F 41.5 °F 92% 29.94 in 7.0 mi SW 3.5 mph - N/A   Drizzle
2:15 AM 43.0 °F 41.3 °F 41.9 °F 96% 29.95 in 7.0 mi SSW 3.5 mph - N/A   Drizzle
2:35 AM 43.2 °F - 41.9 °F 95% 29.95 in 7.0 mi Calm Calm - N/A Rain Rain
2:55 AM 42.8 °F - 41.9 °F 97% 29.95 in 5.0 mi Calm Calm - 0.01 in Rain Light Rain
3:15 AM 43.0 °F - 42.3 °F 97% 29.94 in 5.0 mi Calm Calm - 0.02 in Rain Rain
3:35 AM 43.0 °F - 42.3 °F 97% 29.94 in 4.0 mi Calm Calm - 0.02 in   Drizzle
3:55 AM 43.0 °F - 42.3 °F 97% 29.93 in 4.0 mi Calm Calm - 0.02 in   Light Drizzle
4:15 AM 43.2 °F 39.7 °F 42.4 °F 97% 29.94 in 4.0 mi SW 5.8 mph - N/A   Drizzle
4:35 AM 43.0 °F 38.8 °F 42.6 °F 99% 29.94 in 3.0 mi South 6.9 mph - N/A   Overcast
4:55 AM 43.2 °F 39.7 °F 42.8 °F 99% 29.95 in 4.0 mi SW 5.8 mph - N/A Rain Rain
5:15 AM 43.2 °F - 42.4 °F 97% 29.93 in 4.0 mi Calm Calm - N/A   Drizzle
5:35 AM 42.8 °F - 42.3 °F 98% 29.94 in 3.0 mi Calm Calm - 0.01 in   Drizzle
5:55 AM 42.8 °F - 42.3 °F 98% 29.94 in 4.0 mi Calm Calm - 0.01 in   Light Drizzle
6:15 AM 42.3 °F - 42.1 °F 99% 29.95 in 2.5 mi Calm Calm - N/A   Light Drizzle
6:35 AM 42.4 °F - 42.3 °F 99% 29.94 in 2.5 mi Calm Calm - N/A   Overcast
6:55 AM 42.3 °F - 42.1 °F 99% 29.95 in 2.0 mi Calm Calm - N/A   Overcast
7:15 AM 42.3 °F - 42.1 °F 99% 29.95 in 2.0 mi Calm Calm - N/A   Overcast
7:35 AM 42.4 °F - 42.3 °F 99% 29.95 in 1.2 mi Calm Calm - N/A   Drizzle
7:55 AM 42.8 °F - 42.4 °F 99% 29.95 in 1.0 mi Calm Calm - N/A   Light Drizzle
8:15 AM 43.2 °F - 43.0 °F 99% 29.95 in 1.2 mi Calm Calm - N/A   Drizzle
8:35 AM 43.9 °F 42.3 °F 43.7 °F 99% 29.95 in 1.8 mi NE 3.5 mph - 0.01 in   Drizzle
8:55 AM 44.6 °F 43.1 °F 43.7 °F 97% 29.95 in 2.5 mi NE 3.5 mph - 0.01 in   Light Drizzle
9:15 AM 45.0 °F 41.8 °F 43.9 °F 96% 29.94 in 3.0 mi NE 5.8 mph - N/A   Overcast
9:35 AM 45.5 °F 41.8 °F 44.2 °F 95% 29.94 in 3.0 mi ENE 6.9 mph - N/A   Overcast
9:55 AM 46.4 °F 41.9 °F 44.2 °F 92% 29.93 in 5.0 mi ENE 9.2 mph - N/A   Mostly Cloudy
10:15 AM 46.6 °F - 44.2 °F 92% 29.93 in 5.0 mi ENE 10.4 mph - N/A   Scattered Clouds
10:35 AM 46.6 °F - 44.2 °F 92% 29.92 in 7.0 mi ENE 8.1 mph - N/A   Scattered Clouds
10:55 AM 46.8 °F - 44.1 °F 90% 29.93 in 7.0 mi ENE 6.9 mph - N/A   Mostly Cloudy
11:15 AM 46.6 °F - 43.9 °F 90% 29.92 in 7.0 mi ENE 6.9 mph - N/A   Overcast
11:35 AM 46.6 °F - 43.7 °F 90% 29.92 in 7.0 mi East 5.8 mph - N/A   Overcast
11:55 AM 46.4 °F 44.3 °F 43.9 °F 91% 29.92 in 7.0 mi SE 4.6 mph - N/A   Overcast
12:15 PM 46.0 °F 43.9 °F 43.9 °F 92% 29.91 in 5.0 mi SE 4.6 mph - N/A   Overcast
12:35 PM 46.2 °F 44.1 °F 43.9 °F 92% 29.91 in 5.0 mi ESE 4.6 mph - N/A   Overcast
12:55 PM 46.4 °F 44.3 °F 44.1 °F 92% 29.90 in 5.0 mi East 4.6 mph - N/A   Overcast
1:15 PM 46.4 °F 45.2 °F 44.1 °F 92% 29.90 in 5.0 mi East 3.5 mph - N/A   Overcast
1:35 PM 46.4 °F 45.2 °F 44.1 °F 92% 29.89 in 5.0 mi ENE 3.5 mph - N/A   Overcast
1:55 PM 46.4 °F 44.3 °F 44.1 °F 92% 29.88 in 5.0 mi ENE 4.6 mph - N/A   Overcast
2:15 PM 46.4 °F 45.2 °F 44.1 °F 92% 29.89 in 5.0 mi ENE 3.5 mph - N/A   Overcast
2:35 PM 46.4 °F 45.2 °F 43.9 °F 91% 29.89 in 4.0 mi NE 3.5 mph - N/A   Overcast
2:55 PM 45.5 °F 41.3 °F 43.9 °F 94% 29.89 in 2.5 mi NNE 8.1 mph - N/A   Overcast
3:15 PM 45.0 °F 41.2 °F 43.9 °F 96% 29.89 in 2.0 mi NNE 6.9 mph - N/A   Drizzle
3:35 PM 44.2 °F 39.2 °F 43.2 °F 96% 29.89 in 2.0 mi NNE 9.2 mph - N/A   Light Drizzle
3:55 PM 43.9 °F 38.3 °F 42.8 °F 96% 29.89 in 2.0 mi NNE 10.4 mph - N/A   Overcast
4:15 PM 43.7 °F 39.7 °F 42.4 °F 95% 29.88 in 4.0 mi NNE 6.9 mph - N/A   Light Drizzle
4:35 PM 43.7 °F 39.1 °F 42.6 °F 96% 29.88 in 4.0 mi NNE 8.1 mph - N/A   Overcast
4:55 PM 43.3 °F 38.6 °F 42.3 °F 96% 29.88 in 4.0 mi NNE 8.1 mph - N/A   Overcast
5:15 PM 43.3 °F 37.7 °F 42.1 °F 95% 29.88 in 5.0 mi NE 10.4 mph - N/A   Overcast
5:35 PM 43.3 °F 38.6 °F 42.1 °F 95% 29.88 in 5.0 mi NNE 8.1 mph - N/A   Overcast
5:55 PM 43.3 °F 37.7 °F 42.4 °F 97% 29.87 in 5.0 mi NE 10.4 mph - N/A   Overcast
6:15 PM 43.2 °F 37.4 °F 42.3 °F 97% 29.87 in 4.0 mi NNE 10.4 mph - N/A   Overcast
6:35 PM 43.0 °F 37.7 °F 41.9 °F 96% 29.88 in 5.0 mi NNE 9.2 mph - N/A   Overcast
6:55 PM 42.8 °F 37.5 °F 41.0 °F 93% 29.87 in 5.0 mi NE 9.2 mph - N/A   Overcast
7:15 PM 42.8 °F 37.5 °F 41.5 °F 95% 29.87 in 5.0 mi NNE 9.2 mph - N/A   Overcast
7:35 PM 42.8 °F 38.6 °F 41.4 °F 95% 29.88 in 5.0 mi NNE 6.9 mph - N/A   Light Drizzle
7:55 PM 42.8 °F 39.3 °F 41.4 °F 95% 29.89 in 5.0 mi NNE 5.8 mph - N/A Rain Light Rain
8:15 PM 42.3 °F 39.4 °F 41.4 °F 97% 29.89 in 3.0 mi NNE 4.6 mph - 0.02 in Rain Rain
8:35 PM 42.3 °F 38.6 °F 41.5 °F 97% 29.88 in 3.0 mi NE 5.8 mph - 0.03 in Rain Rain
8:55 PM 42.1 °F 38.4 °F 41.4 °F 97% 29.88 in 4.0 mi NE 5.8 mph - 0.03 in   Overcast
9:15 PM 42.1 °F 37.7 °F 41.4 °F 97% 29.87 in 4.0 mi ENE 6.9 mph - N/A   Overcast
9:35 PM 42.8 °F 39.3 °F 41.0 °F 93% 29.87 in 4.0 mi NE 5.8 mph - N/A   Overcast
9:55 PM 41.5 °F 37.8 °F 41.0 °F 98% 29.86 in 4.0 mi NE 5.8 mph - N/A   Overcast
10:15 PM 42.1 °F 39.2 °F 41.4 °F 97% 29.86 in 4.0 mi NNE 4.6 mph - N/A   Overcast
10:35 PM 42.4 °F - 41.5 °F 97% 29.87 in 4.0 mi Calm Calm - N/A   Overcast
10:55 PM 42.4 °F 40.7 °F 41.9 °F 98% 29.87 in 4.0 mi North 3.5 mph - N/A   Overcast
11:15 PM 42.8 °F 41.1 °F 41.9 °F 97% 29.87 in 4.0 mi North 3.5 mph - N/A   Overcast
11:35 PM 42.8 °F - 41.9 °F 97% 29.87 in 4.0 mi Calm Calm - N/A   Overcast
11:55 PM 42.8 °F - 41.7 °F 96% 29.87 in 4.0 mi Calm Calm - N/A   Overcast